カタログに戻る

STARLINK-34498

運用中通信VLEO
NORAD 64421·PAYLOAD·🇺🇸 United States

打ち上げ Jun 17, 2025 から Vandenberg Space Force Base

Loading…

次のパス (今後24時間)

TLE

最新Source: CelesTrak SupGP

元期: Sep 15, 2026, 03:13 UTC

1 64421C 25129K   26258.13451389  .00037006  00000+0  12872-2 0  2588
2 64421  69.9993 314.9977 0003493 267.0830 307.0302 15.29563561    18

AllMySatでSTARLINK-34498をリアルタイム追跡

Download on the App Store